Regional Weather Roundup
Issued by NWS

Home | Current Version | Previous Version | Text Only | Print | Product List | Glossary Off
Versions: 1 2 3 4 5 6 7 8 9 10 11 12 13 14 15 16 17 18 19 20 21 22 23 24 25 26 27 28 29 30 31 32 33 34 35 36 37 38 39 40 41 42 43 44 45 46 47 48 49 50

000
ASUS45 KBOU 040207
RWRCO

WEATHER ROUNDUP FOR COLORADO
NATIONAL WEATHER SERVICE DENVER/BOULDER CO
800 PM MDT SUN MAY 03 2015

NOTE: "FAIR" INDICATES FEW OR NO CLOUDS BELOW 12000 FEET WITH NO
SIGNIFICANT WEATHER AND/OR OBSTRUCTIONS TO VISIBILITY.

COZ001>005-013-030-031-040300-
...NORTHWEST COLORADO...

CITY           SKY/WX    TMP DP  RH WIND       PRES   REMARKS
CRAIG          MOCLDY    55  38  52 N9        30.02R
HAYDEN         PTCLDY    54  36  50 NE13      30.02R
MEEKER         RAIN      53  42  66 W8G23     30.07R
MOUNT WERNER   NOT AVBL
STEAMBOAT SPGS PTCLDY    52  36  54 W5        30.04R
WALDEN         CLOUDY    45  34  65 N14G22    30.13R
$$

COZ006>008-011-040300-
...WEST CENTRAL VALLEYS...

CITY           SKY/WX    TMP DP  RH WIND       PRES   REMARKS
GRAND JUNCTION CLOUDY    67  34  29 SW13      29.92R
MONTROSE       LGT RAIN  59  41  51 S22       30.03R
EAGLE          CLOUDY    50  46  87 NE7       30.10F
RIFLE          CLOUDY    63  40  42 E9        29.98R
DELTA          CLOUDY    59  49  69 W6        30.01R
NUCLA          CLOUDY    61  34  36 E17G25    30.02R
$$

COZ017>023-064>068-040300-
...SOUTHWEST COLORADO...

CITY           SKY/WX    TMP DP  RH WIND       PRES   REMARKS
DURANGO        CLOUDY    55  40  56 SE14      30.05R
CORTEZ         CLEAR     63  34  33 CALM      30.01R
PAGOSA SPRINGS MOCLDY    46  44  91 NE5       30.15S
TELLURIDE      CLOUDY    41  39  93 E7        30.19S
WOLF CREEK PAS NOT AVBL
$$

COZ009-010-012-014-032>034-037-058>063-040300-
...CENTRAL COLORADO...

CITY           SKY/WX    TMP DP  RH WIND       PRES   REMARKS
ASPEN          CLOUDY    47  39  74 S6        30.10F
BUENA VISTA    NOT AVBL
COPPER MTN     CLOUDY    36  32  87 CALM      30.31S
BERTHOUD PASS  CLOUDY    30  23  74 E15       30.34S WCI  19
COTTONWOOD PAS MOCLDY    45  32  61 W8        30.21S
GUNNISON       PTCLDY    46  36  66 N8        30.15R
KREMMLING      CLOUDY    54  32  43 S15G23    30.10R
LEADVILLE      CLOUDY    40  32  73 N3        30.19F
MONARCH PASS   PTCLDY    32  30  93 NE6       30.40R WCI  26
SALIDA         CLOUDY    55  41  60 CALM      30.18S
SUNLIGHT       CLOUDY    39  34  81 NE3       30.26S
WILKERSON PASS MOCLDY    36  32  87 E6        30.30S
$$

COZ069>075-040300-
...SAN LUIS VALLEY/SANGRE DE CRISTO MOUNTAINS...

CITY           SKY/WX    TMP DP  RH WIND       PRES   REMARKS
ALAMOSA        CLOUDY    50  39  66 S8        30.10S
LA VETA PASS   CLOUDY    37  34  87 MISG      30.20F
SAGUACHE       MOCLDY    52  36  54 S8        30.11R
$$

COZ035-036-038>040-040300-
...NORTHERN COLORADO FRONT RANGE...

CITY           SKY/WX    TMP DP  RH WIND       PRES   REMARKS
DENVER INTL AP CLOUDY    53  46  77 E12       30.06R
DMNS CITY PARK   N/A     57  42  58 SE9       30.06S
AURORA         MOCLDY    53  46  77 E10       30.08R
FRONT RANGE AP MOCLDY    55  48  76 E9        30.07R
ERIE MUNI ARPT CLOUDY    58  46  66 SE5       30.06R
BOULDER MUN AP CLOUDY    57  43  58 N3        30.06R
CENTENNIAL     CLOUDY    51  46  83 E14       30.07S
BROOMFIELD     CLOUDY    57  43  58 SE9       30.09R
FORT COLLINS   CLOUDY    55  43  62 NE3       30.05R
LONGMONT       CLOUDY    59  46  60 NE8       30.07R
$$

COZ041-046-047-076>085-087-088-040300-
...PIKES PEAK/PALMER DIVIDE AND SOUTHERN FOOTHILLS...

CITY           SKY/WX    TMP DP  RH WIND       PRES   REMARKS
COLO. SPRINGS  MOCLDY    56  40  55 N26G35    30.04R
A. F. ACADEMY  MOCLDY    51  42  72 N15       30.08R
ELLICOTT       MOCLDY   N/A N/A N/A N21G31    30.03R
FALCON         MOCLDY    50  39  67 N20G28    30.08S
FORT CARSON    CLOUDY    60  39  45 N17       30.01R
LIMON          CLOUDY    54  43  66 N26G35    30.02R
MONUMENT HILL  CLOUDY    45  41  87 N10       30.11F
TRINIDAD       CLOUDY    60  39  45 W12       29.97F
$$

COZ042>045-048>051-090-091-040300-
...NORTHEAST COLORADO...

CITY           SKY/WX    TMP DP  RH WIND       PRES   REMARKS
GREELEY ARPT   CLOUDY    54  43  66 E6        30.02R
AKRON          CLOUDY    58  46  64 NW13      30.00R
BURLINGTON     CLOUDY    68  43  40 NE8       29.91R
WRAY           CLOUDY    69  41  35 N12       29.91R
STERLING       CLOUDY    61  48  63 N7        29.97S
HOLYOKE        NOT AVBL
FORT MORGAN    CLOUDY    56 -18   4 SW5       30.04R
$$

COZ086-089-092>099-040300-
...SOUTHEAST COLORADO...

CITY           SKY/WX    TMP DP  RH WIND       PRES   REMARKS
PUEBLO         MOCLDY    66  40  38 NE7       29.93R
LA JUNTA       CLOUDY    66  46  48 N13       29.88F
LAMAR          CLOUDY    67  46  47 VRB3      29.86R
SPRINGFIELD      N/A     68  42  38 W5        29.92R
$$


USA.gov is the U.S. government's official web portal to all federal, state and local government web resources and services.